H1 CPF 2 NER 2024 8 22 9 235 01 glonass138 H2 1805301 9138 43508 2024 8 22 0 0 0 2024 8 25 23 45 0 900 1 1 0 0 0 1 H9 10 0 60544 0.00000 0 775077.864 15227375.597 -20451716.480 10 0 60544 900.00000 0 -478629.518 17300283.073 -18743686.945 10 0 60544 1800.00000 0 -1460169.375 19258230.255 -16671771.130 10 0 60544 2700.00000 0 -2174076.092 21036171.159 -14276252.106 10 0 60544 3600.00000 0 -2637217.828 22573198.241 -11603674.359 10 0 60544 4500.00000 0 -2877831.382 23815018.033 -8705939.237 10 0 60544 5400.00000 0 -2934077.321 24716167.967 -5639297.682 10 0 60544 6300.00000 0 -2852177.432 25241882.081 -2463259.659 10 0 60544 7200.00000 0 -2684213.928 25369527.951 760558.586 10 0 60544 8100.00000 0 -2485683.967 25089555.017 3969627.178 10 0 60544 9000.00000 0 -2312913.172 24405914.879 7101712.111 10 0 60544 9900.00000 0 -2220437.648 23335936.129 10096078.224 10 0 60544 10800.00000 0 -2258465.215 21909659.037 12894662.493 10 0 60544 11700.00000 0 -2470523.169 20168657.796 15443195.171 10 0 60544 12600.00000 0 -2891391.950 18164399.367 17692247.373 10 0 60544 13500.00000 0 -3545412.136 15956207.028 19598185.265 10 0 60544 14400.00000 0 -4445236.533 13608913.034 21124012.866 10 0 60544 15300.00000 0 -5591080.610 11190297.555 22240087.623 10 0 60544 16200.00000 0 -6970503.786 8768419.731 22924695.312 10 0 60544 17100.00000 0 -8558732.087 6408951.050 23164473.438 10 0 60544 18000.00000 0 -10319510.189 4172621.133 22954674.968 10 0 60544 18900.00000 0 -12206448.863 2112881.343 22299267.121 10 0 60544 19800.00000 0 -14164813.192 273882.684 21210862.855 10 0 60544 20700.00000 0 -16133678.415 -1311148.432 19710485.681 10 0 60544 21600.00000 0 -18048364.609 -2621069.342 17827171.487 10 0 60544 22500.00000 0 -19843049.509 -3647467.264 15597414.094 10 0 60544 23400.00000 0 -21453450.717 -4394765.710 13064464.367 10 0 60544 24300.00000 0 -22819465.194 -4879787.066 10277495.602 10 0 60544 25200.00000 0 -23887655.183 -5130790.128 7290650.798 10 0 60544 26100.00000 0 -24613475.624 -5186023.556 4161990.026 10 0 60544 27000.00000 0 -24963148.673 -5091856.934 952358.400 10 0 60544 27900.00000 0 -24915105.554 -4900569.165 -2275802.960 10 0 60544 28800.00000 0 -24460934.079 -4667888.759 -5459679.080 10 0 60544 29700.00000 0 -23605791.143 -4450391.295 -8537311.736 10 0 60544 30600.00000 0 -22368262.173 -4302865.523 -11448813.525 10 0 60544 31500.00000 0 -20779673.072 -4275760.958 -14137540.735 10 0 60544 32400.00000 0 -18882883.530 -4412826.280 -16551201.339 10 0 60544 33300.00000 0 -16730612.452 -4749039.552 -18642875.923 10 0 60544 34200.00000 0 -14383366.123 -5308918.723 -20371931.338 10 0 60544 35100.00000 0 -11907056.214 -6105284.470 -21704809.291 10 0 60544 36000.00000 0 -9370407.567 -7138528.111 -22615674.854 10 0 60544 36900.00000 0 -6842264.199 -8396415.792 -23086912.769 10 0 60544 37800.00000 0 -4388905.810 -9854437.456 -23109462.600 10 0 60544 38700.00000 0 -2071486.177 -11476686.142 -22682986.963 10 0 60544 39600.00000 0 56300.559 -13217230.910 -21815870.251 10 0 60544 40500.00000 0 1950229.675 -15021926.049 -20525048.512 10 0 60544 41400.00000 0 3577149.377 -16830581.048 -18835674.237 10 0 60544 42300.00000 0 4916112.832 -18579400.743 -16780622.872 10 0 60544 43200.00000 0 5958993.285 -20203593.848 -14399850.786 10 0 60544 44100.00000 0 6710558.421 -21640041.015 -11739617.184 10 0 60544 45000.00000 0 7188002.675 -22829911.061 -8851585.022 10 0 60544 45900.00000 0 7419958.795 -23721116.130 -5791818.274 10 0 60544 46800.00000 0 7445031.674 -24270503.221 -2619694.908 10 0 60544 47700.00000 0 7309917.374 -24445690.490 603243.398 10 0 60544 48600.00000 0 7067187.531 -24226471.529 3814482.556 10 0 60544 49500.00000 0 6772833.242 -23605728.842 6951745.354 10 0 60544 50400.00000 0 6483672.516 -22589818.237 9954195.353 10 0 60544 51300.00000 0 6254730.929 -21198407.902 12763612.199 10 0 60544 52200.00000 0 6136706.139 -19463778.593 15325515.853 10 0 60544 53100.00000 0 6173623.255 -17429613.803 17590218.257 10 0 60544 54000.00000 0 6400780.016 -15149329.854 19513782.507 10 0 60544 54900.00000 0 6843068.514 -12684014.790 21058871.477 10 0 60544 55800.00000 0 7513744.509 -10100061.154 22195469.909 10 0 60544 56700.00000 0 8413696.702 -7466590.178 22901466.436 10 0 60544 57600.00000 0 9531247.613 -4852773.458 23163084.564 10 0 60544 58500.00000 0 10842495.584 -2325162.478 22975154.318 10 0 60544 59400.00000 0 12312184.987 54864.068 22341219.138 10 0 60544 60300.00000 0 13895069.691 2233429.934 21273475.513 10 0 60544 61200.00000 0 15537714.187 4166171.799 19792545.829 10 0 60544 62100.00000 0 17180658.310 5819847.489 17927087.967 10 0 60544 63000.00000 0 18760856.008 7173475.397 15713248.244 10 0 60544 63900.00000 0 20214286.655 8218957.874 13193967.313 10 0 60544 64800.00000 0 21478629.733 8961162.908 10418151.703 10 0 60544 65700.00000 0 22495890.481 9417460.994 7439726.372 10 0 60544 66600.00000 0 23214865.649 9616737.162 4316586.459 10 0 60544 67500.00000 0 23593344.831 9597920.339 1109468.591 10 0 60544 68400.00000 0 23599953.640 9408092.870 -2119235.914 10 0 60544 69300.00000 0 23215559.992 9100260.995 -5306702.135 10 0 60544 70200.00000 0 22434183.120 8730881.687 -8390902.266 10 0 60544 71100.00000 0 21263366.112 8357251.717 -11311821.024 10 0 60544 72000.00000 0 19723995.518 8034870.727 -14012631.013 10 0 60544 72900.00000 0 17849575.163 7814891.097 -16440804.362 10 0 60544 73800.00000 0 15684984.435 7741763.590 -18549138.339 10 0 60544 74700.00000 0 13284773.116 7851179.173 -20296674.629 10 0 60544 75600.00000 0 10711064.324 8168394.602 -21649494.387 10 0 60544 76500.00000 0 8031153.357 8707012.841 -22581373.875 10 0 60544 77400.00000 0 5314902.813 9468269.935 -23074288.416 10 0 60544 78300.00000 0 2632042.504 10440858.385 -23118755.573 10 0 60544 79200.00000 0 49486.255 11601294.469 -22714011.612 10 0 60544 80100.00000 0 -2371223.315 12914813.944 -21868018.512 10 0 60544 81000.00000 0 -4576236.673 14336758.528 -20597302.052 10 0 60544 81900.00000 0 -6521390.549 15814394.953 -18926624.531 10 0 60544 82800.00000 0 -8173790.865 17289090.386 -16888498.847 10 0 60544 83700.00000 0 -9512921.165 18698753.102 -14522553.475 10 0 60544 84600.00000 0 -10531232.066 19980436.263 -11874760.711 10 0 60544 85500.00000 0 -11234188.907 21072995.773 -8996543.117 10 0 60545 0.00000 0 -11639777.329 21919690.849 -5943775.677 10 0 60545 900.00000 0 -11777489.289 22470618.765 -2775701.271 10 0 60545 1800.00000 0 -11686833.026 22684880.605 446215.443 10 0 60545 2700.00000 0 -11415431.525 22532388.693 3659479.002 10 0 60545 3600.00000 0 -11016789.802 21995238.599 6801771.902 10 0 60545 4500.00000 0 -10547826.003 21068588.502 9812159.357 10 0 60545 5400.00000 0 -10066270.678 19761008.669 12632266.602 10 0 60545 6300.00000 0 -9628044.070 18094285.968 15207406.165 10 0 60545 7200.00000 0 -9284721.980 16102690.993 17487633.568 10 0 60545 8100.00000 0 -9081196.945 13831737.696 19428711.450 10 0 60545 9000.00000 0 -9053633.176 11336486.302 20992963.957 10 0 60545 9900.00000 0 -9227801.410 8679459.254 22150005.311 10 0 60545 10800.00000 0 -9617863.940 5928255.739 22877328.887 10 0 60545 11700.00000 0 -10225661.362 3152962.771 23160745.727 10 0 60545 12600.00000 0 -11040531.763 423469.227 22994664.031 10 0 60545 13500.00000 0 -12039670.909 -2193206.753 22382204.106 10 0 60545 14400.00000 0 -13189019.532 -4635467.036 21335146.093 10 0 60545 15300.00000 0 -14444641.756 -6849454.331 19873710.823 10 0 60545 16200.00000 0 -15754538.079 -8791048.794 18026177.178 10 0 60545 17100.00000 0 -17060817.937 -10427457.760 15828342.416 10 0 60545 18000.00000 0 -18302141.424 -11738332.689 13322834.943 10 0 60545 18900.00000 0 -19416328.028 -12716366.955 10558292.014 10 0 60545 19800.00000 0 -20343022.721 -13367349.769 7588417.697 10 0 60545 20700.00000 0 -21026306.791 -13709674.286 4470939.062 10 0 60545 21600.00000 0 -21417142.681 -13773321.103 1266480.922 10 0 60545 22500.00000 0 -21475548.757 -13598360.585 -1962618.661 10 0 60545 23400.00000 0 -21172411.049 -13233038.077 -5153528.328 10 0 60545 24300.00000 0 -20490854.330 -12731523.858 -8244154.217 10 0 60545 25200.00000 0 -19427113.484 -12151424.123 -11174356.632 10 0 60545 26100.00000 0 -17990867.428 -11551159.462 -13887127.858 10 0 60545 27000.00000 0 -16205020.730 -10987322.861 -16329707.335 10 0 60545 27900.00000 0 -14104941.500 -10512129.996 -18454611.870 10 0 60545 28800.00000 0 -11737187.250 -10171070.400 -20220560.428 10 0 60545 29700.00000 0 -9157771.918 -10000859.289 -21593275.526 10 0 60545 30600.00000 0 -6430046.485 -10027776.754 -22546145.910 10 0 60545 31500.00000 0 -3622281.636 -10266464.378 -23060738.111 10 0 60545 32400.00000 0 -805053.109 -10719229.822 -23127147.627 10 0 60545 33300.00000 0 1951461.733 -11375888.275 -22744183.652 10 0 60545 34200.00000 0 4580164.109 -12214147.131 -21919384.441 10 0 60545 35100.00000 0 7019580.166 -13200517.281 -20668863.664 10 0 60545 36000.00000 0 9216168.621 -14291712.474 -19016991.162 10 0 60545 36900.00000 0 11126294.956 -15436477.700 -16995914.649 10 0 60545 37800.00000 0 12717791.464 -16577769.675 -14644931.774 10 0 60545 38700.00000 0 13971039.749 -17655197.818 -12009724.766 10 0 60545 39600.00000 0 14879532.157 -18607623.156 -9141472.465 10 0 60545 40500.00000 0 15449890.361 -19375806.012 -6095856.896 10 0 60545 41400.00000 0 15701341.929 -19904991.262 -2931983.524 10 0 60545 42300.00000 0 15664678.263 -20147322.481 288763.879 10 0 60545 43200.00000 0 15380738.933 -20063983.470 3503911.632 10 0 60545 44100.00000 0 14898487.139 -19626977.043 6651104.822 10 0 60545 45000.00000 0 14272758.021 -18820466.074 9669312.862 10 0 60545 45900.00000 0 13561775.097 -17641620.154 12500008.722 10 0 60545 46800.00000 0 12824539.651 -16100931.782 15088299.205 10 0 60545 47700.00000 0 12118203.032 -14221988.129 17383984.682 10 0 60545 48600.00000 0 11495532.347 -12040707.031 19342528.166 10 0 60545 49500.00000 0 11002576.017 -9604068.019 20925915.497 10 0 60545 50400.00000 0 10676627.157 -6968390.095 22103390.398 10 0 60545 51300.00000 0 10544570.338 -4197226.646 22852050.659 10 0 60545 52200.00000 0 10621681.216 -1358963.646 23157294.212 10 0 60545 53100.00000 0 10910929.773 1475780.424 23013106.522 10 0 60545 54000.00000 0 11402816.924 4236846.260 22422183.630 10 0 60545 54900.00000 0 12075752.134 6857206.439 21395888.013 10 0 60545 55800.00000 0 12896957.083 9275509.101 19954037.502 10 0 60545 56700.00000 0 13823858.433 11438387.640 18124530.438 10 0 60545 57600.00000 0 14805912.106 13302440.884 15942813.405 10 0 60545 58500.00000 0 15786783.118 14835801.559 13451200.864 10 0 60545 59400.00000 0 16706789.752 16019227.806 10698059.051 10 0 60545 60300.00000 0 17505509.268 16846672.283 7736869.308 10 0 60545 61200.00000 0 18124435.014 17325305.163 4625188.737 10 0 60545 62100.00000 0 18509572.257 17474990.370 1423528.359 10 0 60545 63000.00000 0 18613862.156 17327237.556 -1805829.038 10 0 60545 63900.00000 0 18399330.342 16923674.627 -5000047.694 10 0 60545 64800.00000 0 17838868.025 16314106.123 -8096969.684 10 0 60545 65700.00000 0 16917569.123 15554240.447 -11036332.825 10 0 60545 66600.00000 0 15633565.718 14703183.088 -13760950.884 10 0 60545 67500.00000 0 13998325.582 13820802.861 -16217832.299 10 0 60545 68400.00000 0 12036398.352 12965083.433 -18359214.964 10 0 60545 69300.00000 0 9784620.412 12189572.820 -20143496.565 10 0 60545 70200.00000 0 7290811.359 11541039.015 -21536042.319 10 0 60545 71100.00000 0 4612016.315 11057430.859 -22509854.693 10 0 60545 72000.00000 0 1812367.319 10766230.019 -23046092.531 10 0 60545 72900.00000 0 -1039347.232 10683263.091 -23134430.196 10 0 60545 73800.00000 0 -3872304.206 10812023.277 -22773250.484 10 0 60545 74700.00000 0 -6616349.751 11143529.462 -21969668.255 10 0 60545 75600.00000 0 -9204673.948 11656727.878 -20739384.990 10 0 60545 76500.00000 0 -11576345.791 12319418.789 -19106377.540 10 0 60545 77400.00000 0 -13678604.107 13089668.636 -17102427.453 10 0 60545 78300.00000 0 -15468810.369 13917647.785 -14766500.151 10 0 60545 79200.00000 0 -16915983.486 14747816.281 -12143986.037 10 0 60545 80100.00000 0 -18001853.982 15521365.419 -9285818.201 10 0 60545 81000.00000 0 -18721395.104 16178812.258 -6247483.752 10 0 60545 81900.00000 0 -19082810.091 16662637.808 -3087947.832 10 0 60545 82800.00000 0 -19106977.529 16919857.724 131488.861 10 0 60545 83700.00000 0 -18826379.276 16904417.197 3348376.935 10 0 60545 84600.00000 0 -18283557.025 16579309.052 6500326.613 10 0 60545 85500.00000 0 -17529163.153 15918325.684 9526214.071 10 0 60546 0.00000 0 -16619688.461 14907370.850 12367362.334 10 0 60546 900.00000 0 -15614962.157 13545275.061 14968675.529 10 0 60546 1800.00000 0 -14575530.527 11844081.014 17279701.071 10 0 60546 2700.00000 0 -13560022.742 9828784.361 19255604.689 10 0 60546 3600.00000 0 -12622615.412 7536540.736 20858036.063 10 0 60546 4500.00000 0 -11810701.579 5015370.334 22055870.332 10 0 60546 5400.00000 0 -11162861.741 2322412.641 22825811.327 10 0 60546 6300.00000 0 -10707221.798 -478197.627 23152845.147 10 0 60546 7200.00000 0 -10460266.719 -3317746.586 23030535.418 10 0 60546 8100.00000 0 -10426159.781 -6125550.348 22461154.387 10 0 60546 9000.00000 0 -10596596.252 -8831650.316 21455646.905 10 0 60546 9900.00000 0 -10951198.162 -11369483.682 20033427.363 10 0 60546 10800.00000 0 -11458434.183 -13678419.076 18222012.661 10 0 60546 11700.00000 0 -12077026.627 -15706052.476 16056497.349 10 0 60546 12600.00000 0 -12757786.962 -17410168.056 13578880.169 10 0 60546 13500.00000 0 -13445802.950 -18760282.336 10837254.188 10 0 60546 14400.00000 0 -14082885.378 -19738707.130 7884875.559 10 0 60546 15300.00000 0 -14610170.919 -20341086.742 4779128.698 10 0 60546 16200.00000 0 -14970770.680 -20576386.955 1580407.933 10 0 60546 17100.00000 0 -15112351.627 -20466336.461 -1649062.280 10 0 60546 18000.00000 0 -14989540.595 -20044344.652 -4846444.940 10 0 60546 18900.00000 0 -14566047.925 -19353941.992 -7949521.302 10 0 60546 19800.00000 0 -13816419.566 -18446809.587 -10897909.965 10 0 60546 20700.00000 0 -12727342.260 -17380482.068 -13634249.428 10 0 60546 21600.00000 0 -11298445.486 -16215821.775 -16105320.268 10 0 60546 22500.00000 0 -9542565.290 -15014371.790 -18263084.408 10 0 60546 23400.00000 0 -7485458.029 -13835700.293 -20065620.866 10 0 60546 24300.00000 0 -5164975.389 -12734848.762 -21477939.743 10 0 60546 25200.00000 0 -2629734.694 -11759991.713 -22472658.876 10 0 60546 26100.00000 0 62660.229 -10950406.407 -23030530.481 10 0 60546 27000.00000 0 2847773.738 -10334837.475 -23140808.210 10 0 60546 27900.00000 0 5656779.168 -9930324.465 -22801448.266 10 0 60546 28800.00000 0 8419084.548 -9741540.665 -22019141.342 10 0 60546 29700.00000 0 11065034.576 -9760669.923 -20809175.426 10 0 60546 30600.00000 0 13528577.238 -9967825.572 -19195132.592 10 0 60546 31500.00000 0 15749784.993 -10331992.857 -17208425.978 10 0 60546 32400.00000 0 17677126.696 -10812454.358 -14887686.126 10 0 60546 33300.00000 0 19269396.768 -11360637.739 -12278008.572 10 0 60546 34200.00000 0 20497222.437 -11922307.485 -9430077.273 10 0 60546 35100.00000 0 21344087.422 -12440007.953 -6399180.768 10 0 60546 36000.00000 0 21806830.559 -12855654.508 -3244140.037 10 0 60546 36900.00000 0 21895599.720 -13113163.341 -26168.817 10 0 60546 37800.00000 0 21633264.087 -13161008.962 3192311.591 10 0 60546 38700.00000 0 21054310.407 -12954601.350 6348880.120 10 0 60546 39600.00000 0 20203270.322 -12458382.369 9382322.931 10 0 60546 40500.00000 0 19132745.398 -11647552.800 12233816.346 10 0 60546 41400.00000 0 17901113.102 -10509356.783 14848063.025 10 0 60546 42300.00000 0 16570010.155 -9043869.010 17174359.631 10 0 60546 43200.00000 0 15201698.793 -7264250.654 19167575.722 10 0 60546 44100.00000 0 13856426.106 -5196462.163 20789025.413 10 0 60546 45000.00000 0 12589886.796 -2878443.535 22007215.358 10 0 60546 45900.00000 0 11450895.173 -358794.730 22798455.067 10 0 60546 46800.00000 0 10479363.473 2304990.472 23147318.051 10 0 60546 47700.00000 0 9704670.757 5048665.311 23046944.965 10 0 60546 48600.00000 0 9144490.472 7803658.238 22499182.808 10 0 60546 49500.00000 0 8804125.691 10499689.036 21514557.069 10 0 60546 50400.00000 0 8676379.992 13067465.386 20112076.746 10 0 60546 51300.00000 0 8741969.623 15441348.791 18318875.153 10 0 60546 52200.00000 0 8970459.964 17561879.610 16169692.542 10 0 60546 53100.00000 0 9321687.224 19378056.368 13706209.572 10 0 60546 54000.00000 0 9747605.760 20849274.351 10976243.712 10 0 60546 54900.00000 0 10194483.185 21946842.409 8032823.467 10 0 60546 55800.00000 0 10605350.414 22655014.235 4933158.088 10 0 60546 56700.00000 0 10922602.599 22971490.694 1737522.747 10 0 60546 57600.00000 0 11090640.204 22907372.021 -1491918.834 10 0 60546 58500.00000 0 11058437.334 22486561.978 -4692330.701 10 0 60546 59400.00000 0 10781927.401 21744649.394 -7801435.411 10 0 60546 60300.00000 0 10226103.754 20727314.768 -10758734.257 10 0 60546 61200.00000 0 9366745.068 19488329.858 -13506692.145 10 0 60546 62100.00000 0 8191691.206 18087235.478 -15991863.217 10 0 60546 63000.00000 0 6701614.562 16586796.242 -18165934.620 10 0 60546 63900.00000 0 4910253.333 15050340.298 -19986667.705 10 0 60546 64800.00000 0 2844096.078 13539096.618 -21418718.287 10 0 60546 65700.00000 0 541530.115 12109642.117 -22434320.256 10 0 60546 66600.00000 0 -1948511.076 10811565.856 -23013819.708 10 0 60546 67500.00000 0 -4568345.395 9685447.986 -23146049.915 10 0 60546 68400.00000 0 -7253709.986 8761237.462 -22828540.562 10 0 60546 69300.00000 0 -9936209.506 8057095.561 -22067557.936 10 0 60546 70200.00000 0 -12545943.375 7578752.438 -20877975.920 10 0 60546 71100.00000 0 -15014203.292 7319402.356 -19282980.787 10 0 60546 72000.00000 0 -17276129.445 7260140.643 -17313615.867 10 0 60546 72900.00000 0 -19273215.700 7370922.731 -15008175.067 10 0 60546 73800.00000 0 -20955560.354 7612003.855 -12411457.026 10 0 60546 74700.00000 0 -22283769.585 7935797.898 -9573894.351 10 0 60546 75600.00000 0 -23230435.191 8289076.372 -6550574.671 10 0 60546 76500.00000 0 -23781125.928 8615414.338 -3400172.413 10 0 60546 77400.00000 0 -23934851.952 8857779.706 -183811.941 10 0 60546 78300.00000 0 -23703983.867 8961156.397 3036115.960 10 0 60546 79200.00000 0 -23113630.592 8875090.485 6197161.348 10 0 60546 80100.00000 0 -22200502.797 8556051.618 9238022.774 10 0 60546 81000.00000 0 -21011310.101 7969509.898 12099731.994 10 0 60546 81900.00000 0 -19600759.554 7091640.238 14726793.032 10 0 60546 82800.00000 0 -18029239.402 5910581.914 17068253.743 10 0 60546 83700.00000 0 -16360285.130 4427199.508 19078689.559 10 0 60546 84600.00000 0 -14657933.545 2655312.262 20719080.822 10 0 60546 85500.00000 0 -12984075.261 621380.912 21957567.204 10 0 60547 0.00000 0 -11395915.840 -1636336.220 22770065.009 10 0 60547 900.00000 0 -9943650.325 -4069125.608 23140736.082 10 0 60547 1800.00000 0 -8668449.888 -6619602.119 23062298.421 10 0 60547 2700.00000 0 -7600841.392 -9223865.329 22536173.792 10 0 60547 3600.00000 0 -6759549.388 -11813937.521 21572467.953 10 0 60547 4500.00000 0 -6150847.909 -14320384.519 20189783.757 10 0 60547 5400.00000 0 -5768449.218 -16675011.244 18414869.831 10 0 60547 6300.00000 0 -5593934.199 -18813520.570 16282110.672 10 0 60547 7200.00000 0 -5597706.357 -20678025.074 13832867.088 10 0 60547 8100.00000 0 -5740429.307 -22219306.952 11114678.906 10 0 60547 9000.00000 0 -5974887.103 -23398731.499 8180344.708 10 0 60547 9900.00000 0 -6248188.649 -24189733.652 5086896.138 10 0 60547 10800.00000 0 -6504222.518 -24578814.861 1894486.632 10 0 60547 11700.00000 0 -6686257.599 -24566008.028 -1334783.494 10 0 60547 12600.00000 0 -6739578.466 -24164790.724 -4538082.086 10 0 60547 13500.00000 0 -6614042.642 -23401450.295 -7653075.822 10 0 60547 14400.00000 0 -6266450.134 -22313927.843 -10619151.545 10 0 60547 15300.00000 0 -5662623.524 -20950190.213 -13378603.424 10 0 60547 16200.00000 0 -4779109.308 -19366199.240 -15877761.968 10 0 60547 17100.00000 0 -3604427.335 -17623564.464 -18068042.211 10 0 60547 18000.00000 0 -2139814.572 -15786978.839 -19906890.261 10 0 60547 18900.00000 0 -399430.947 -13921545.805 -21358609.731 10 0 60547 19800.00000 0 1589982.138 -12090110.316 -22395052.221 10 0 60547 20700.00000 0 3789976.888 -10350705.861 -22996158.895 10 0 60547 21600.00000 0 6151771.669 -8754224.114 -23150343.308 10 0 60547 22500.00000 0 8618064.109 -7342404.135 -22854708.778 10 0 60547 23400.00000 0 11125209.509 -6146224.251 -22115096.840 10 0 60547 24300.00000 0 13605674.169 -5184762.610 -20945966.454 10 0 60547 25200.00000 0 15990661.953 -4464572.591 -19370106.831 10 0 60547 26100.00000 0 18212805.233 -3979597.665 -17418189.775 10 0 60547 27000.00000 0 20208808.739 -3711627.665 -15128170.395 10 0 60547 27900.00000 0 21921936.863 -3631275.845 -12544547.829 10 0 60547 28800.00000 0 23304241.393 -3699434.352 -9717500.291 10 0 60547 29700.00000 0 24318437.472 -3869145.794 -6701911.082 10 0 60547 30600.00000 0 24939350.199 -4087811.178 -3556304.360 10 0 60547 31500.00000 0 25154872.078 -4299640.511 -341711.216 10 0 60547 32400.00000 0 24966392.001 -4448242.174 2879511.996 10 0 60547 33300.00000 0 24388678.368 -4479241.470 6044890.261 10 0 60547 34200.00000 0 23449221.770 -4342817.521 9093038.047 10 0 60547 35100.00000 0 22187065.152 -3996051.234 11964845.690 10 0 60547 36000.00000 0 20651170.640 -3404984.942 14604621.243 10 0 60547 36900.00000 0 18898391.473 -2546306.537 16961165.904 10 0 60547 37800.00000 0 16991133.735 -1408586.528 18988762.580 10 0 60547 38700.00000 0 14994805.333 6984.839 20648058.927 10 0 60547 39600.00000 0 12975158.313 1686392.438 21906828.209 10 0 60547 40500.00000 0 10995634.866 3603133.110 22740593.710 10 0 60547 41400.00000 0 9114827.076 5719082.020 23133104.951 10 0 60547 42300.00000 0 7384155.668 7985854.057 23076656.628 10 0 60547 43200.00000 0 5845863.917 10346605.305 22572244.020 10 0 60547 44100.00000 0 4531409.809 12738201.227 21629551.497 10 0 60547 45000.00000 0 3460323.133 15093662.761 20266773.748 10 0 60547 45900.00000 0 2639574.922 17344789.702 18510272.373 10 0 60547 46800.00000 0 2063485.337 19424852.967 16394073.528 10 0 60547 47700.00000 0 1714173.732 21271243.920 13959215.399 10 0 60547 48600.00000 0 1562531.766 22827970.291 11252957.274 10 0 60547 49500.00000 0 1569678.393 24047894.107 8327864.849 10 0 60547 50400.00000 0 1688835.028 24894617.417 5240789.175 10 0 60547 51300.00000 0 1867541.154 25343936.119 2051759.010 10 0 60547 52200.00000 0 2050115.937 25384800.189 -1177191.585 10 0 60547 53100.00000 0 2180260.662 25019739.357 -4383236.948 10 0 60547 54000.00000 0 2203690.638 24264735.937 -7503990.336 10 0 60547 54900.00000 0 2070683.745 23148550.031 -10478726.314 10 0 60547 55800.00000 0 1738436.363 21711525.622 -13249570.171 10 0 60547 56700.00000 0 1173125.606 20003928.186 -15762630.295 10 0 60547 57600.00000 0 351589.452 18083884.234 -17969050.800 10 0 60547 58500.00000 0 -737447.304 16015010.001 -19825963.443 10 0 60547 59400.00000 0 -2092653.872 13863829.385 -21297320.278 10 0 60547 60300.00000 0 -3699912.082 11697089.759 -22354591.032 10 0 60547 61200.00000 0 -5532681.016 9579088.267 -22977312.133 10 0 60547 62100.00000 0 -7552892.822 7569120.211 -23153477.381 10 0 60547 63000.00000 0 -9712342.644 5719155.666 -22879763.434 10 0 60547 63900.00000 0 -11954514.884 4071840.418 -22161586.459 10 0 60547 64800.00000 0 -14216769.925 2658903.490 -21012989.535 10 0 60547 65700.00000 0 -16432800.491 1500036.229 -19456363.484 10 0 60547 66600.00000 0 -18535255.574 602288.139 -17522006.900 10 0 60547 67500.00000 0 -20458423.019 -39997.049 -15247534.103 10 0 60547 68400.00000 0 -22140859.366 -444704.102 -12677142.490 10 0 60547 69300.00000 0 -23527857.689 -640949.456 -9860753.468 10 0 60547 70200.00000 0 -24573650.929 -667608.108 -6853043.500 10 0 60547 71100.00000 0 -25243259.136 -571427.409 -3712383.906 10 0 60547 72000.00000 0 -25513903.855 -404808.125 -499709.932 10 0 60547 72900.00000 0 -25375930.891 -223347.056 2722659.085 10 0 60547 73800.00000 0 -24833203.212 -83245.387 5892225.621 10 0 60547 74700.00000 0 -23902947.804 -38692.519 8947522.592 10 0 60547 75600.00000 0 -22615063.082 -139336.085 11829301.381 10 0 60547 76500.00000 0 -21010915.894 -427945.135 14481676.431 10 0 60547 77400.00000 0 -19141678.337 -938365.341 16853204.457 10 0 60547 78300.00000 0 -17066273.675 -1693852.785 18897877.779 10 0 60547 79200.00000 0 -14849016.685 -2705857.083 20576012.983 10 0 60547 80100.00000 0 -12557046.359 -3973305.813 21855018.158 10 0 60547 81000.00000 0 -10257657.276 -5482421.444 22710024.343 10 0 60547 81900.00000 0 -8015640.039 -7207079.796 23124369.272 10 0 60547 82800.00000 0 -5890740.721 -9109696.618 23089924.223 10 0 60547 83700.00000 0 -3935344.303 -11142606.943 22607257.570 10 0 60547 84600.00000 0 -2192477.832 -13249881.359 21685631.511 10 0 60547 85500.00000 0 -694215.885 -15369504.951 20342831.461 99